EW5462 Weather Reports


Display with metric or nautical units.
time (UTC)temp
F
wind
direction
speed
MPH
gust
MPH
rain 1hr
in
rain 24hr
in
rain mn
in
humidity
%
barometer
mb
20260506223717 85 276 2.0 4.0 0.00 0.00 0.00 19 1011.5
20260506222716 86 227 0.0 2.0 0.00 0.00 0.00 19 1011.7
20260506221717 85 342 5.0 6.0 0.00 0.00 0.00 19 1011.9
20260506220716 87 288 5.0 7.0 0.00 0.00 0.00 19 1012.0
20260506215717 84 223 2.0 4.0 0.00 0.00 0.00 21 1012.2
20260506214717 84 338 4.0 6.0 0.00 0.00 0.00 20 1012.4
20260506213716 84 0.0 0.0 0.00 0.00 0.00 20 1012.6
20260506212717 86 177 2.0 4.0 0.00 0.00 0.00 22 1012.7
20260506211717 85 263 0.0 1.0 0.00 0.00 0.00 21 1012.9
20260506210716 83 270 1.0 2.0 0.00 0.00 0.00 19 1013.1
20260506205717 84 288 6.0 7.0 0.00 0.00 0.00 20 1013.1
20260506204716 84 342 5.0 7.0 0.00 0.00 0.00 21 1013.3
20260506203717 84 69 4.0 5.0 0.00 0.00 0.00 21 1013.4
20260506202716 82 199 0.0 0.0 0.00 0.00 0.00 23 1013.6
20260506201717 81 337 3.0 4.0 0.00 0.00 0.00 21 1013.7
20260506200717 83 316 6.0 10.0 0.00 0.00 0.00 22 1013.8
20260506195716 82 342 5.0 7.0 0.00 0.00 0.00 23 1013.9
20260506194717 82 356 7.0 11.0 0.00 0.00 0.00 23 1014.0
20260506193717 80 325 2.0 5.0 0.00 0.00 0.00 26 1014.1
20260506192717 80 249 0.0 1.0 0.00 0.00 0.00 25 1014.3
20260506191716 80 207 1.0 2.0 0.00 0.00 0.00 27 1014.4
20260506190717 80 326 2.0 4.0 0.00 0.00 0.00 27 1014.6
20260506185716 81 150 3.0 4.0 0.00 0.00 0.00 31 1014.6
20260506184717 79 299 2.0 5.0 0.00 0.00 0.00 31 1014.7
20260506183716 78 0.0 0.0 0.00 0.00 0.00 32 1014.8
20260506182717 77 309 2.0 4.0 0.00 0.00 0.00 32 1015.0
20260506181716 78 326 2.0 6.0 0.00 0.00 0.00 32 1015.1
20260506180717 79 202 5.0 6.0 0.00 0.00 0.00 35 1015.2
20260506175717 77 353 5.0 6.0 0.00 0.00 0.00 33 1015.3
20260506174717 77 30 3.0 6.0 0.00 0.00 0.00 34 1015.4
20260506173717 76 0.0 0.0 0.00 0.00 0.00 34 1015.4
20260506172716 75 0.0 0.0 0.00 0.00 0.00 37 1015.4
20260506171717 77 170 1.0 4.0 0.00 0.00 0.00 35 1015.4
20260506170716 76 118 0.0 2.0 0.00 0.00 0.00 37 1015.4
20260506165717 73 312 0.0 1.0 0.00 0.00 0.00 39 1015.4
20260506164716 74 224 2.0 4.0 0.00 0.00 0.00 41 1015.4
20260506163717 74 0.0 0.0 0.00 0.00 0.00 39 1015.3
20260506162717 72 96 0.0 0.0 0.00 0.00 0.00 39 1015.3
20260506161717 72 28 0.0 0.0 0.00 0.00 0.00 40 1015.3
20260506160716 70 0.0 0.0 0.00 0.00 0.00 42 1015.2
20260506155717 70 349 3.0 3.0 0.00 0.00 0.00 40 1015.3
20260506154716 70 357 4.0 5.0 0.00 0.00 0.00 41 1015.3
20260506154017 69 346 3.0 5.0 0.00 0.00 0.00 41 1015.3
20260506153017 69 340 4.0 6.0 0.00 0.00 0.00 41 1015.3
20260506152017 68 316 2.0 4.0 0.00 0.00 0.00 42 1015.3
20260506151017 68 318 6.0 9.0 0.00 0.00 0.00 43 1015.2
20260506150016 67 310 4.0 6.0 0.00 0.00 0.00 42 1015.2
20260506145018 66 295 5.0 7.0 0.00 0.00 0.00 42 1015.1
20260506144017 65 291 8.0 11.0 0.00 0.00 0.00 42 1015.1
20260506143017 64 304 5.0 7.0 0.00 0.00 0.00 46 1015.0
20260506142017 62 260 2.0 4.0 0.00 0.00 0.00 47 1015.0
20260506141017 62 223 1.0 2.0 0.00 0.00 0.00 47 1015.0
20260506140017 60 255 2.0 3.0 0.00 0.00 0.00 49 1015.0
20260506135018 59 0.0 0.0 0.00 0.00 0.00 50 1014.9
20260506134017 58 0.0 0.0 0.00 0.00 0.00 52 1014.9
20260506133017 56 188 0.0 0.0 0.00 0.00 0.00 54 1014.8
20260506132018 56 0.0 0.0 0.00 0.00 0.00 54 1014.7
20260506131018 54 195 1.0 2.0 0.00 0.00 0.00 56 1014.7
20260506130017 54 176 3.0 4.0 0.00 0.00 0.00 57 1014.6
20260506125016 54 170 1.0 2.0 0.00 0.00 0.00 56 1014.4
20260506124017 54 0.0 0.0 0.00 0.00 0.00 55 1014.3
20260506123017 54 176 1.0 2.0 0.00 0.00 0.00 56 1014.2
20260506122019 55 169 0.0 0.0 0.00 0.00 0.00 55 1014.1
20260506121717 55 169 1.0 2.0 0.00 0.00 0.00 55 1014.1
20260506120716 55 0.0 0.0 0.00 0.00 0.00 55 1014.1
20260506115717 55 0.0 0.0 0.00 0.00 0.00 54 1014.1
20260506114916 55 0.0 0.0 0.00 0.00 0.00 54 1014.0
20260506113917 55 0.0 0.0 0.00 0.00 0.00 56 1014.0
20260506112929 56 0.0 0.0 0.00 0.00 0.00 56 1014.0
20260506111917 57 0.0 0.0 0.00 0.00 0.00 53 1013.9
20260506110916 56 0.0 0.0 0.00 0.00 0.00 57 1013.8
20260506105917 57 0.0 0.0 0.00 0.00 0.00 52 1013.7
20260506104917 57 0.0 0.0 0.00 0.00 0.00 52 1013.7
20260506103916 59 0.0 0.0 0.00 0.00 0.00 50 1013.6
20260506102917 60 247 2.0 3.0 0.00 0.00 0.00 48 1013.5
20260506102617 60 251 3.0 4.0 0.00 0.00 0.00 48 1013.5
20260506101617 60 259 2.0 3.0 0.00 0.00 0.00 48 1013.5
20260506100617 60 298 3.0 4.0 0.00 0.00 0.00 48 1013.4
20260506095616 60 292 4.0 6.0 0.00 0.00 0.00 47 1013.4
20260506094617 60 285 2.0 4.0 0.00 0.00 0.00 46 1013.5
20260506093617 60 285 3.0 4.0 0.00 0.00 0.00 46 1013.4
20260506092617 60 327 3.0 4.0 0.00 0.00 0.00 45 1013.5
20260506091616 61 311 3.0 4.0 0.00 0.00 0.00 45 1013.5
20260506090616 61 312 4.0 5.0 0.00 0.00 0.00 44 1013.4
20260506085617 61 0.0 0.0 0.00 0.00 0.00 45 1013.5
20260506084617 60 0.0 0.0 0.00 0.00 0.00 45 1013.6
20260506083617 61 296 1.0 2.0 0.00 0.00 0.00 44 1013.7
20260506082617 62 297 0.0 2.0 0.00 0.00 0.00 43 1013.7
20260506081616 62 262 4.0 6.0 0.00 0.00 0.00 43 1013.6
20260506080617 62 266 1.0 2.0 0.00 0.00 0.00 43 1013.6
20260506072617 63 274 6.0 9.0 0.00 0.00 0.00 41 1013.4
20260506071617 63 264 5.0 5.0 0.00 0.00 0.00 40 1013.4
20260506071517 63 253 5.0 6.0 0.00 0.00 0.00 41 1013.4
20260506070517 63 267 4.0 5.0 0.00 0.00 0.00 40 1013.5
20260506061617 64 257 5.0 6.0 0.00 0.00 0.00 38 1013.2
20260506060616 65 270 5.0 7.0 0.00 0.00 0.00 38 1013.2
20260506050617 66 283 9.0 12.0 0.00 0.00 0.00 37 1012.8
20260506044617 67 293 6.0 7.0 0.00 0.00 0.00 37 1012.5
20260506043616 67 281 5.0 7.0 0.00 0.00 0.00 37 1012.4
20260506042617 68 285 6.0 7.0 0.00 0.00 0.00 36 1012.2
20260506041617 68 295 6.0 8.0 0.00 0.00 0.00 35 1012.0
20260506035616 69 295 6.0 7.0 0.00 0.00 0.00 34 1011.7
20260506034616 70 304 9.0 13.0 0.00 0.00 0.00 34 1011.5
20260506033617 70 297 8.0 13.0 0.00 0.00 0.00 33 1011.4
20260506032616 70 295 9.0 14.0 0.00 0.00 0.00 33 1011.2
20260506031616 71 287 8.0 11.0 0.00 0.00 0.00 31 1011.1
20260506030617 71 279 8.0 10.0 0.00 0.00 0.00 30 1010.9
20260506025616 72 290 6.0 8.0 0.00 0.00 0.00 30 1010.6
20260506024617 72 280 5.0 6.0 0.00 0.00 0.00 30 1010.4
20260506023617 72 288 7.0 10.0 0.00 0.00 0.00 30 1010.3
20260506022617 73 272 5.0 8.0 0.00 0.00 0.00 30 1010.1
20260506021617 73 279 7.0 10.0 0.00 0.00 0.00 29 1010.0
20260506020616 74 268 9.0 12.0 0.00 0.00 0.00 29 1009.7
20260506015617 74 280 7.0 10.0 0.00 0.00 0.00 28 1009.6
20260506014634 75 267 10.0 13.0 0.00 0.00 0.00 28 1009.5
20260506013616 75 284 9.0 14.0 0.00 0.00 0.00 28 1009.5
20260506012617 76 258 6.0 9.0 0.00 0.00 0.00 27 1009.4
20260506011616 76 254 7.0 9.0 0.00 0.00 0.00 28 1009.3
20260506010616 77 253 10.0 14.0 0.00 0.00 0.00 27 1009.3
20260506005617 77 283 8.0 11.0 0.00 0.00 0.00 27 1009.3
20260506004617 78 294 8.0 10.0 0.00 0.00 0.00 27 1009.2
20260506003617 78 264 9.0 12.0 0.00 0.00 0.00 27 1009.2
20260506002617 78 266 8.0 10.0 0.00 0.00 0.00 27 1009.3
20260506001616 78 256 9.0 11.0 0.00 0.00 0.00 27 1009.3
20260506000617 80 229 8.0 11.0 0.00 0.00 0.00 25 1009.2
20260505234616 78 276 9.0 12.0 0.00 0.00 0.00 27 1009.3
20260505233616 79 310 9.0 12.0 0.00 0.00 0.00 25 1009.2
20260505232622 78 253 5.0 7.0 0.00 0.00 0.00 27 1009.3
20260505231616 80 228 5.0 6.0 0.00 0.00 0.00 25 1009.2
20260505230617 79 269 8.0 11.0 0.00 0.00 0.00 27 1009.3
20260505225617 78 287 5.0 7.0 0.00 0.00 0.00 27 1009.4
20260505224617 79 279 10.0 12.0 0.00 0.00 0.00 26 1009.5